Theta_e
350 348 347 346 344 343 344 345 347 347 347 346 346 345 345 346 346 346 346 347 345 346 347 347 346 346 346 346 347 347 348 348 347 346 347 349 351 355 362 364 363 364 365 366 366 364 362 360 360 360 360 359 358 358 358 358 357 357 357 357 356 356 357 357 357 356 357 356 356 356 355 355 354 354 355 355 354 355 354 355 354 355 354 354 354
348 346 346 345 344 344 345 345 345 346 348 347 350 348 349 348 347 346 348 346 345 345 348 346 347 348 347 346 347 347 348 348 347 345 346 348 351 354 361 365 364 364 366 365 365 365 361 361 361 361 361 360 359 359 358 358 358 358 357 357 357 357 357 357 357 357 357 357 356 356 356 355 355 355 354 354 355 355 355 355 355 356 356 355 355
346 345 344 345 346 346 348 348 347 348 350 348 349 349 347 345 345 345 346 346 346 346 348 346 346 347 348 348 347 347 348 350 349 347 346 348 351 354 356 364 365 365 365 365 364 365 363 361 361 362 363 361 360 360 359 358 358 358 358 358 357 357 357 357 357 358 357 357 356 356 356 356 355 355 355 355 355 356 356 357 356 356 356 356 355
346 345 345 345 346 348 349 349 348 348 349 349 347 348 349 348 348 347 346 346 347 347 347 346 346 348 348 348 348 348 349 350 351 351 350 349 353 356 356 357 364 363 365 365 365 365 363 362 362 361 363 363 362 361 360 360 359 358 358 358 358 358 357 357 357 358 358 357 357 357 357 357 357 356 356 356 356 357 357 357 357 357 356 357 356
346 346 350 346 347 348 349 351 349 348 347 349 350 349 348 348 346 347 345 347 348 347 348 349 348 349 349 349 348 349 350 351 351 351 352 353 354 358 358 357 353 357 358 357 358 361 364 363 362 362 364 363 362 361 361 360 359 358 358 358 357 358 357 357 358 358 358 358 358 357 357 358 357 357 357 357 357 358 358 357 357 357 357 357 357
347 347 348 347 347 348 347 349 349 348 347 348 345 347 345 344 345 344 345 344 338 338 342 346 347 347 345 347 347 348 350 351 351 351 352 352 354 354 358 357 350 351 354 358 358 358 361 363 363 362 365 364 363 362 361 361 360 359 359 359 358 358 358 357 358 358 358 358 358 358 358 358 358 358 358 358 358 358 358 358 358 358 358 358 358
350 349 348 346 346 346 346 347 349 349 346 345 343 343 342 341 343 339 338 337 336 339 340 341 341 341 341 341 341 343 347 350 351 351 351 352 353 352 354 356 356 352 352 354 359 361 363 364 360 363 365 365 364 363 362 361 360 360 360 359 359 359 359 358 358 358 359 359 358 358 359 359 359 359 359 359 359 359 358 358 359 359 359 359 358
353 351 349 347 346 347 347 347 348 347 344 343 344 342 340 342 342 340 335 335 336 336 340 340 340 339 340 340 341 345 346 348 350 351 352 352 352 352 352 354 355 356 358 354 354 357 362 365 365 364 365 365 364 362 364 362 361 360 360 360 360 359 360 359 359 359 359 359 359 359 359 359 360 359 360 360 359 359 359 359 359 359 359 359 359
352 350 348 346 344 345 345 344 347 344 343 342 341 342 340 342 340 342 337 335 336 336 338 338 338 338 338 338 339 341 339 341 344 348 352 351 351 352 352 351 353 360 357 356 358 358 361 363 366 364 365 364 364 364 364 364 363 361 361 360 360 360 360 360 359 359 359 359 359 359 359 359 360 360 360 360 360 360 359 359 359 359 359 359 359
350 349 347 347 346 345 346 344 345 343 342 341 341 341 340 340 338 339 340 337 335 335 335 337 338 339 340 340 339 338 338 339 341 347 347 348 350 351 352 352 352 352 355 357 357 357 358 361 363 363 362 360 360 363 364 364 363 363 362 361 360 360 360 361 360 359 359 360 359 359 359 359 359 360 360 360 360 360 360 359 359 359 359 359 359
350 350 348 349 347 346 346 345 344 344 343 343 342 342 341 339 339 339 340 339 338 337 338 338 340 340 340 339 339 338 338 339 341 342 343 345 347 350 350 350 351 351 352 355 357 358 356 356 353 356 353 357 359 360 363 364 362 362 363 362 361 361 361 360 361 360 360 360 359 359 359 359 359 359 360 360 360 360 359 360 360 360 360 359 359
351 351 349 349 348 347 346 347 347 345 343 342 342 340 341 341 341 340 338 339 343 342 341 339 338 337 339 339 339 340 340 341 340 340 342 341 342 343 344 347 348 349 350 352 354 356 357 349 349 350 350 352 356 358 354 355 363 364 363 364 362 361 361 361 361 361 361 361 360 359 359 359 359 359 359 360 359 359 359 359 359 359 360 360 359
352 351 349 352 350 348 347 348 348 347 345 344 344 343 343 342 342 342 341 337 335 338 338 338 335 333 334 335 336 338 340 341 340 340 340 341 341 341 343 344 346 347 349 351 352 353 349 344 346 347 350 350 352 354 354 355 354 362 363 363 363 362 362 361 361 361 361 361 361 359 358 358 358 359 359 358 358 358 358 358 358 358 359 359 359
353 350 350 350 351 350 350 350 349 347 347 348 340 342 343 342 342 339 340 338 336 337 339 335 330 327 330 331 331 333 336 338 337 339 339 340 341 341 342 344 345 347 349 348 347 344 343 344 345 347 347 347 348 349 350 353 353 352 355 363 363 362 361 362 362 362 361 361 362 360 359 358 357 358 358 358 358 357 357 357 357 357 358 358 359
351 351 349 349 350 350 350 350 349 349 348 346 342 339 340 342 342 340 338 336 340 341 339 338 330 331 331 328 323 325 329 329 332 335 336 337 339 341 344 344 345 348 350 348 344 343 344 344 343 344 345 346 346 348 348 351 352 353 352 353 360 363 362 362 361 360 362 362 362 362 359 358 358 358 358 358 358 357 357 357 356 356 356 357 358
352 352 351 350 349 348 348 346 347 348 345 343 340 338 340 342 340 342 340 336 332 333 341 337 336 331 324 324 325 325 322 320 328 332 334 335 343 337 339 344 347 348 346 347 347 344 343 345 343 344 346 348 348 348 349 348 350 354 353 351 352 354 358 360 361 362 361 360 361 362 360 358 358 358 359 358 358 358 357 357 356 356 356 357 357
348 350 352 347 345 344 342 342 341 341 343 341 339 339 338 339 341 339 338 335 331 332 335 337 335 336 332 328 324 320 320 325 327 328 331 334 335 336 339 340 341 344 346 346 346 344 344 344 344 344 345 344 345 346 347 348 350 352 351 352 350 350 352 354 356 360 361 361 361 361 360 359 358 358 359 360 359 358 357 357 356 356 356 356 357
340 342 343 342 340 341 339 340 340 341 342 342 340 339 338 338 339 337 336 334 332 331 330 334 338 339 337 335 332 327 325 326 323 320 332 334 334 335 336 337 338 339 341 343 344 344 345 344 344 344 344 345 344 345 345 345 348 347 347 348 352 350 350 354 357 359 361 361 361 361 361 360 359 359 359 360 361 359 359 357 356 356 356 356 356
339 339 340 342 339 340 339 339 339 341 346 340 340 339 339 339 341 337 336 341 334 330 329 331 336 332 337 337 336 334 331 326 322 326 324 328 331 332 334 335 335 336 337 338 342 344 344 344 344 344 344 345 346 346 347 347 349 349 352 353 353 355 354 355 357 358 360 360 359 360 361 360 360 359 358 358 360 361 358 358 357 356 356 356 356
337 338 340 344 341 339 337 337 337 341 344 338 339 340 339 340 342 337 338 336 332 331 330 331 331 331 336 336 334 335 333 329 329 327 325 321 322 328 331 330 332 333 335 335 335 337 339 341 343 344 344 345 345 345 346 349 350 350 353 354 354 354 353 354 356 358 359 359 358 357 361 361 360 359 359 359 360 361 360 359 358 356 356 356 356
339 340 339 340 345 338 337 336 336 339 342 337 337 337 338 337 338 338 336 335 333 333 333 330 330 331 330 329 330 329 330 331 331 328 325 320 320 321 322 328 329 330 330 332 333 334 335 336 340 342 344 345 344 344 344 343 345 347 352 355 356 356 354 352 353 356 357 358 359 358 358 360 361 362 360 361 361 361 361 360 360 358 357 357 358
336 337 338 339 340 340 338 337 337 341 342 335 336 335 334 335 337 337 334 335 334 336 335 334 332 331 331 330 328 326 324 324 325 324 323 324 319 321 322 322 321 325 329 330 331 332 333 334 336 339 340 341 342 342 343 343 343 344 347 351 353 353 352 351 351 354 357 357 357 359 359 358 358 357 360 361 362 361 362 362 361 360 360 360 359
336 337 337 339 339 342 338 338 339 344 341 335 335 336 336 335 335 336 337 335 335 336 338 334 332 330 331 330 328 326 325 324 323 323 324 319 318 320 322 324 324 323 326 329 331 331 331 333 334 337 339 340 341 341 341 341 345 346 348 349 350 351 350 350 351 353 353 355 357 359 360 359 358 357 358 359 362 362 360 362 363 362 362 361 361
335 335 337 339 340 338 341 338 340 335 335 335 335 336 336 336 334 333 332 333 335 338 335 333 333 333 330 330 330 329 327 325 326 325 323 321 321 322 322 323 323 323 327 328 329 328 330 331 332 334 336 338 340 342 343 344 344 348 348 349 348 349 350 350 351 351 351 350 351 354 357 358 357 357 359 358 360 361 361 360 362 363 363 362 362
332 336 337 337 338 334 334 335 335 337 338 335 336 336 335 335 334 334 332 332 333 333 333 333 333 332 329 329 330 331 330 329 328 327 324 323 324 323 323 323 320 322 324 324 324 327 328 329 331 334 334 336 338 339 341 343 344 347 350 349 348 347 347 348 348 347 348 347 348 351 352 353 353 355 356 357 358 360 359 362 361 361 363 363 363
333 333 335 335 337 336 339 334 334 334 337 335 334 334 336 334 334 333 333 332 333 332 331 332 332 333 331 330 330 330 329 331 328 328 325 323 322 322 323 321 320 319 321 320 321 322 324 327 330 331 332 333 335 337 339 341 344 349 351 349 346 345 345 345 346 345 345 345 345 347 348 350 351 352 353 354 355 356 358 358 360 363 363 363 363
332 333 335 334 334 336 336 334 334 334 336 336 339 336 335 337 336 335 335 333 334 334 331 332 333 330 329 331 331 329 328 327 329 328 326 324 323 321 321 317 317 317 316 317 318 318 320 324 327 327 329 332 333 334 337 339 342 347 351 348 347 347 345 344 344 344 343 343 344 344 345 346 348 350 351 352 351 354 355 354 356 359 360 360 360
331 334 334 335 334 335 336 334 333 333 333 333 332 333 333 333 332 333 334 339 335 333 332 332 332 330 328 328 330 327 327 328 328 326 326 326 325 324 322 320 317 312 313 312 313 314 320 320 323 327 328 328 329 330 335 336 336 342 345 345 345 345 345 344 343 343 342 342 342 342 342 343 344 346 347 349 348 348 350 351 352 353 355 357 357
331 335 332 332 333 334 333 332 332 332 331 333 333 332 333 333 334 332 334 334 336 334 334 334 333 331 329 329 327 326 326 327 326 326 324 324 323 324 324 321 319 314 311 310 312 313 316 320 318 321 325 326 326 328 329 330 335 337 338 341 342 344 343 341 341 341 341 341 341 341 341 341 341 342 344 345 346 346 347 348 349 351 352 353 354
335 335 333 332 332 341 333 332 332 332 332 332 331 331 331 331 332 333 334 333 334 335 335 334 332 331 331 329 329 327 328 325 324 326 325 323 323 322 322 321 321 316 315 312 312 316 316 319 319 318 322 323 325 326 327 328 335 333 334 336 339 341 340 340 340 341 341 340 339 338 339 339 340 340 340 341 342 344 345 346 346 348 350 351 352
335 333 332 330 330 332 331 331 331 332 330 330 331 331 331 331 332 333 333 332 332 332 333 334 333 333 330 328 327 327 327 326 325 325 325 325 322 322 321 322 321 319 317 316 312 317 318 316 318 321 321 322 324 324 325 326 330 331 332 334 336 339 340 340 338 338 339 338 337 337 336 336 337 338 337 338 339 341 342 343 345 345 347 349 350
333 332 331 332 332 330 331 331 330 328 328 329 330 330 329 330 330 333 333 333 332 331 331 333 335 334 330 328 327 328 327 325 324 324 323 324 324 321 321 321 320 320 319 318 315 314 317 318 318 320 321 321 322 322 322 324 328 331 329 331 334 340 339 339 340 338 337 336 337 336 335 334 335 336 337 337 338 340 341 341 341 343 344 345 346
334 333 332 332 331 331 329 331 329 328 328 329 330 330 329 330 330 330 332 332 332 332 332 331 333 333 331 329 328 328 328 325 323 324 323 323 322 322 322 319 319 319 319 317 316 315 317 319 319 319 321 321 320 321 321 322 323 325 329 329 332 334 336 337 339 340 338 336 335 335 335 335 334 335 336 337 338 339 341 342 341 341 342 341 343
332 332 330 330 331 330 330 329 330 330 330 329 330 328 329 328 329 331 332 330 331 332 331 331 331 333 331 329 329 328 327 325 324 323 323 323 322 320 319 320 318 319 320 317 317 316 314 318 318 320 320 321 318 321 320 320 321 324 324 326 329 333 335 337 338 339 339 337 335 333 334 334 334 334 335 336 337 338 338 339 339 338 338 339 339
331 330 330 330 330 330 329 329 328 329 329 328 329 329 329 328 327 327 331 331 330 329 329 329 330 331 330 330 328 327 327 324 324 324 324 323 322 320 319 319 319 319 319 319 318 316 315 316 318 318 318 319 319 319 321 322 323 324 324 325 328 332 336 338 339 340 340 337 335 334 333 333 334 334 334 335 334 334 335 335 335 336 336 336 336
330 332 332 331 331 329 329 329 329 327 327 327 328 329 329 328 329 329 329 329 328 328 328 329 330 328 328 327 327 325 326 325 323 323 323 323 321 321 319 319 319 319 319 319 319 317 317 316 318 318 319 318 319 320 321 322 322 322 323 325 327 329 333 337 339 339 339 336 335 334 333 332 333 333 333 333 332 331 331 331 332 332 332 332 333
331 331 332 332 330 330 330 329 327 326 326 327 327 328 329 330 329 329 329 328 326 326 327 328 330 328 327 327 326 326 324 323 323 323 322 321 321 320 320 319 320 319 320 320 319 319 318 317 318 320 320 319 320 320 321 319 320 321 323 323 324 326 330 334 338 340 339 335 334 334 333 332 332 332 332 332 331 330 329 329 329 329 329 329 330
331 330 330 329 331 328 327 326 326 327 327 327 328 328 330 330 330 329 328 327 327 327 327 328 328 328 328 328 327 325 324 323 323 323 321 320 321 321 320 320 319 320 319 319 319 319 318 318 318 317 319 317 317 318 319 320 319 319 320 321 324 327 330 332 336 339 341 341 340 339 335 334 333 331 331 331 331 330 329 328 327 326 325 325 324
329 328 327 325 327 328 327 326 326 326 327 327 326 329 330 329 329 328 326 326 327 328 328 329 329 329 329 329 328 326 325 324 323 320 321 322 322 321 322 320 320 319 318 318 319 318 318 318 318 318 317 318 317 316 318 320 320 319 318 319 320 324 326 328 329 336 340 340 340 338 338 337 335 334 331 329 330 329 329 327 326 324 323 322 321
326 326 325 326 326 328 326 326 327 329 327 326 326 329 329 329 328 327 326 326 325 325 325 326 327 328 329 329 329 328 326 325 323 323 323 322 322 321 321 320 320 319 318 318 318 318 318 318 317 316 317 316 316 317 318 318 316 317 319 319 317 318 320 323 326 327 333 337 338 339 338 336 335 333 330 330 330 329 328 328 328 327 324 322 321
327 325 326 327 326 326 327 327 327 327 327 329 331 330 329 328 327 327 327 327 326 325 325 325 325 325 325 326 327 327 330 331 326 325 324 322 322 320 320 320 320 319 318 318 318 318 317 317 317 317 316 315 315 315 314 314 314 314 317 318 317 319 321 322 324 328 332 334 336 338 338 340 339 338 338 336 336 333 332 331 333 332 328 323 322
329 330 327 328 327 327 327 326 326 326 328 329 332 331 331 330 327 328 327 326 326 326 327 326 326 326 326 326 328 333 331 328 326 323 321 320 320 322 322 320 319 318 318 318 317 317 317 317 316 316 314 313 313 314 314 314 316 317 317 317 316 318 320 320 322 325 331 334 334 334 337 340 340 339 340 339 340 339 337 336 335 335 332 327 325
328 329 330 328 328 329 328 327 325 327 329 330 329 326 327 331 330 326 326 327 327 327 327 326 326 326 324 322 321 327 331 330 329 324 321 320 320 319 319 319 319 320 318 316 316 317 319 318 317 315 314 313 314 315 314 315 316 316 317 318 317 318 317 316 315 320 328 333 333 333 334 339 340 338 340 340 341 341 340 339 335 333 330 328 326
329 330 329 330 329 329 330 327 325 325 327 328 325 325 326 326 330 329 326 326 326 325 325 324 323 322 322 323 324 325 326 327 326 325 325 324 321 320 319 318 318 318 318 319 320 319 318 317 316 316 315 314 314 314 314 315 315 316 317 318 317 317 316 316 317 316 323 334 334 333 333 338 340 339 339 341 342 343 342 337 333 332 329 328 327
329 329 330 330 330 329 329 327 326 325 325 326 324 324 324 324 325 327 324 324 324 324 322 323 323 323 324 324 325 325 326 328 329 326 323 323 322 320 318 318 318 318 318 318 318 321 322 319 317 315 315 314 313 314 316 316 317 315 316 316 317 317 318 317 318 319 322 330 331 331 331 335 339 338 338 340 342 344 344 336 332 331 329 327 327
330 329 330 330 330 329 329 328 328 326 324 324 323 321 321 321 322 324 323 323 322 321 322 322 323 323 324 324 324 324 324 325 324 323 323 322 322 322 322 322 321 322 320 319 318 317 318 318 316 315 316 316 314 315 318 318 316 315 315 315 316 316 317 317 319 320 323 327 327 329 328 333 339 338 337 339 342 342 343 339 332 330 329 327 326
329 329 330 330 330 331 330 329 327 325 325 323 320 319 318 317 319 323 320 322 319 319 320 321 322 323 324 325 323 323 324 324 325 324 322 322 322 322 320 320 321 322 321 321 319 319 320 319 318 317 316 316 316 316 317 318 317 317 317 317 317 317 318 320 321 322 322 326 329 329 324 331 338 335 338 340 341 342 343 337 332 329 328 325 325
329 329 329 330 330 329 329 328 326 325 327 324 320 318 316 316 319 323 319 318 317 318 320 322 323 324 324 324 323 323 323 323 321 320 322 323 320 319 319 320 320 318 318 317 317 319 320 319 318 317 316 316 314 316 317 316 316 317 318 319 319 318 317 316 315 318 319 323 327 326 325 328 337 335 337 341 342 341 343 345 334 328 327 326 326
328 328 328 329 329 328 327 326 326 326 327 323 317 315 315 315 317 317 317 318 318 319 320 321 322 323 323 323 323 323 323 322 321 317 316 316 319 319 319 317 316 315 316 319 318 316 315 312 311 312 312 313 313 313 312 313 317 317 318 316 315 316 315 313 314 316 317 320 324 328 328 328 334 336 337 340 341 341 342 345 346 330 327 325 324
328 329 328 325 325 327 326 326 327 326 325 322 314 312 312 314 319 317 317 317 317 319 320 322 322 321 323 330 330 323 322 321 317 313 315 316 319 317 315 313 313 313 315 318 319 319 315 314 314 315 315 315 314 314 314 315 314 315 317 313 315 316 314 315 313 316 317 320 323 331 330 329 333 337 336 335 336 337 340 343 346 340 328 325 324
327 325 327 324 324 323 323 325 332 324 322 317 311 311 311 312 316 316 316 316 317 319 320 319 319 319 320 323 326 319 319 320 312 312 312 313 315 314 311 312 313 314 316 317 316 314 314 315 316 317 317 316 319 319 320 315 316 318 321 320 320 318 315 316 316 316 315 318 325 336 329 330 332 335 336 331 331 333 335 337 343 343 336 333 331
Wind_Speed
5 5 4 4 3 2 2 2 0 2 2 2 3 3 3 2 2 2 3 4 4 4 4 4 4 4 4 5 5 4 4 4 4 4 4 5 5 7 13 15 15 16 16 16 17 18 20 21 21 20 20 20 20 20 19 19 19 19 18 18 18 18 17 17 17 17 16 16 16 15 15 14 13 13 13 13 12 12 12 12 11 11 10 10 10
6 4 5 5 3 1 2 2 2 3 3 1 2 4 1 0 1 2 3 4 4 5 4 5 4 4 4 5 5 5 4 4 4 4 5 5 5 6 13 15 15 15 15 15 16 18 20 21 22 22 21 21 21 21 20 20 20 19 19 19 19 19 18 18 18 18 17 17 16 16 15 15 14 14 14 13 13 13 13 12 12 12 12 11 11
6 5 4 4 3 2 3 3 3 4 1 1 0 1 1 0 1 2 3 4 5 5 5 5 5 4 4 5 6 5 5 4 4 4 5 5 6 6 8 14 15 15 15 15 16 17 20 21 22 22 22 22 22 22 22 21 20 20 19 19 19 19 19 18 18 18 18 17 16 16 15 15 15 15 14 14 14 14 14 13 13 13 12 12 12
6 5 5 4 4 4 4 4 5 3 1 1 0 0 0 0 1 3 5 5 5 4 4 4 5 5 5 5 5 5 5 5 5 5 5 4 5 6 6 7 14 16 15 15 16 17 17 20 21 22 22 22 23 23 23 22 22 21 21 20 19 19 19 19 19 19 18 18 17 17 16 16 15 15 15 15 15 15 15 15 14 14 14 13 13
6 6 5 5 4 4 4 4 4 4 2 1 0 0 0 2 2 1 3 5 5 5 4 4 5 6 5 5 5 6 6 6 6 5 6 5 5 5 6 7 3 10 15 15 16 18 19 20 21 21 22 22 23 23 23 23 23 22 22 22 21 20 20 20 20 19 19 18 18 17 17 17 16 16 16 16 15 15 15 15 15 14 14 13 13
6 6 5 5 4 4 4 5 4 3 2 2 1 0 1 1 1 1 3 5 5 5 4 4 5 4 5 5 5 5 5 6 6 7 6 6 6 4 5 4 6 9 9 16 20 20 22 20 21 21 21 22 22 23 24 24 24 23 23 22 21 21 21 21 20 20 19 18 19 18 18 17 17 17 17 16 15 16 16 15 15 15 14 13 14
6 6 6 5 5 5 5 6 4 3 4 3 3 2 2 2 1 2 4 5 5 5 5 5 4 5 5 5 5 5 5 6 6 6 6 7 6 6 5 5 6 8 9 9 14 21 22 21 21 22 21 21 22 23 24 24 24 24 24 23 22 21 21 21 21 20 19 19 19 19 18 18 18 18 18 17 16 15 16 16 15 14 13 13 14
6 6 5 4 5 5 6 4 3 3 4 2 3 3 2 3 4 4 3 5 4 5 5 5 4 5 5 5 5 5 5 5 6 6 6 6 7 7 6 5 5 6 9 8 9 12 21 22 21 21 21 21 22 23 24 24 24 24 24 24 24 23 20 21 20 20 20 20 20 19 19 19 19 18 18 18 17 16 16 16 15 14 14 14 14
4 3 4 4 4 5 4 3 2 3 3 3 3 3 3 3 3 3 3 4 4 6 5 4 4 5 5 4 5 4 5 5 5 6 6 6 7 7 7 6 6 7 7 8 9 9 15 21 22 22 21 21 21 22 23 24 25 24 24 25 25 24 22 21 21 21 20 21 20 20 20 19 19 19 20 19 18 16 16 16 16 15 15 14 14
5 5 4 4 4 5 4 3 2 2 2 3 5 3 3 3 3 4 5 4 4 5 5 4 4 5 5 6 6 5 6 6 6 5 6 7 7 8 8 7 6 7 7 7 8 8 8 13 20 22 19 15 16 20 22 22 24 24 25 24 25 25 24 22 22 22 21 21 21 20 20 19 19 19 19 19 19 17 17 17 16 16 16 15 15
3 5 5 5 4 4 3 3 2 3 4 4 4 4 3 2 3 4 3 5 5 5 5 4 5 5 6 7 6 6 6 6 6 6 6 7 7 7 6 7 6 7 7 7 7 8 8 5 5 4 10 19 19 21 21 23 23 24 25 25 25 25 25 24 23 22 22 22 21 20 20 20 20 20 20 19 19 18 18 17 17 17 17 16 16
4 5 5 4 4 5 5 3 4 5 5 5 4 2 4 4 5 5 6 4 4 5 4 4 4 5 6 7 6 6 7 6 6 6 6 6 7 6 7 8 7 7 8 7 7 7 5 4 5 7 8 11 18 20 19 23 22 22 24 25 26 26 25 25 24 23 23 22 23 21 21 20 20 21 21 20 20 19 18 18 18 18 17 17 16
5 5 5 5 5 4 4 4 4 5 5 5 2 2 5 4 4 4 5 3 2 4 3 3 3 5 4 5 6 5 7 6 6 5 5 5 6 6 6 6 7 7 7 6 6 6 4 1 4 5 7 8 10 17 20 23 23 21 23 24 26 26 26 26 25 24 24 22 22 22 22 21 21 21 21 21 20 20 19 19 19 18 18 18 17
6 5 4 5 4 4 4 5 5 5 5 2 5 6 7 5 4 5 3 3 3 2 2 1 2 2 6 7 4 3 5 4 3 3 5 5 5 4 5 6 7 7 6 6 6 4 5 5 5 4 5 7 7 5 8 13 13 22 24 23 24 26 27 28 27 26 25 25 23 23 22 22 22 22 22 21 21 20 20 19 19 19 19 18 18
5 5 5 4 4 4 4 4 4 4 5 4 5 6 6 6 6 4 3 2 3 4 3 3 2 1 2 2 5 5 3 3 3 5 5 5 4 3 3 4 7 6 5 4 2 3 5 7 6 7 8 9 9 9 7 7 10 14 20 23 23 25 27 25 25 26 26 25 24 23 23 23 22 23 22 22 21 21 20 20 20 20 19 19 18
4 4 3 3 4 4 4 4 5 4 5 5 5 6 5 5 3 4 3 4 2 2 1 2 3 1 3 0 3 3 5 1 6 7 3 3 3 7 6 5 5 5 3 4 4 4 6 4 8 9 10 7 4 4 5 5 11 15 14 12 18 22 24 27 28 26 25 24 25 24 23 23 23 23 23 23 22 22 21 21 20 20 20 20 19
3 4 4 4 4 3 3 3 3 2 3 4 4 5 4 3 4 3 4 4 2 1 2 1 1 2 1 1 2 2 1 5 6 6 3 7 5 4 5 7 7 7 6 5 3 4 4 4 3 3 5 6 7 7 7 7 8 7 10 15 16 18 23 27 25 27 26 25 25 24 24 24 24 23 23 22 23 23 22 22 21 20 20 20 20
3 4 4 4 4 3 3 1 1 1 2 3 2 2 2 2 3 3 2 3 2 1 3 2 2 1 3 4 2 2 3 2 2 6 4 3 4 3 4 5 5 7 6 5 5 5 4 5 5 7 7 7 7 6 7 8 8 7 8 10 18 20 24 25 27 27 27 27 27 24 23 24 24 24 24 22 22 23 23 22 22 21 21 21 20
3 3 3 3 3 3 3 3 2 1 0 2 1 1 2 2 3 2 3 3 2 1 3 3 5 1 0 1 5 4 3 0 2 3 8 2 2 5 4 4 6 7 7 6 6 5 5 5 6 6 6 5 6 6 7 8 9 10 15 17 18 19 22 24 23 25 27 27 27 26 23 24 24 25 25 24 23 23 24 23 23 22 22 21 21
4 2 3 4 4 4 3 3 3 2 1 2 1 1 1 1 0 1 3 3 3 2 1 3 1 4 2 3 0 1 3 3 2 2 2 6 8 4 2 6 7 6 5 7 8 7 7 6 6 6 5 5 6 6 7 7 7 8 9 17 20 19 20 20 20 20 24 25 25 26 26 25 25 26 25 25 23 23 24 25 24 23 23 22 21
3 3 2 3 4 4 4 3 3 2 2 2 1 1 2 1 0 0 1 2 3 2 3 1 1 3 3 1 1 1 1 1 3 2 1 2 5 6 9 8 5 4 7 8 7 6 7 8 8 7 6 5 5 6 7 7 8 8 9 15 19 18 19 21 20 22 22 25 27 27 25 26 26 26 26 25 23 23 23 24 24 24 23 22 21
1 1 1 3 4 4 4 4 3 3 2 2 1 1 1 1 1 1 2 2 2 2 4 4 3 3 2 2 1 2 2 1 1 2 0 1 2 7 7 9 11 9 6 6 10 10 8 8 8 8 7 6 5 6 6 8 8 8 10 16 18 20 22 21 22 23 23 22 24 27 27 24 24 25 27 27 27 25 24 24 24 24 24 23 22
2 0 2 2 4 3 4 3 2 2 1 1 1 1 0 0 1 1 1 1 2 2 4 3 2 2 2 2 2 1 0 0 3 2 0 1 3 5 6 4 6 11 9 6 7 10 9 6 7 8 8 7 6 6 6 7 9 10 14 15 18 19 20 22 22 23 23 23 24 25 26 26 27 26 28 29 26 27 26 25 24 25 25 24 24
0 1 0 3 3 3 3 3 2 2 2 2 2 2 1 1 1 1 1 1 1 2 4 4 3 4 3 3 3 3 2 2 2 2 2 3 2 5 6 6 6 4 6 9 8 6 7 9 8 7 8 8 8 7 7 7 8 14 14 15 18 19 19 21 21 22 23 24 23 24 25 25 27 29 29 31 28 29 28 27 26 25 25 25 24
1 2 3 4 3 2 2 1 1 2 2 2 2 2 1 1 1 1 1 1 2 2 2 2 3 3 3 2 4 4 3 3 2 2 1 1 2 3 4 3 4 8 6 3 4 7 7 6 6 7 7 8 8 8 8 8 8 10 14 11 17 17 18 19 20 21 22 22 22 24 25 26 27 26 25 25 25 26 29 27 28 27 25 25 25
3 3 4 3 2 2 3 2 3 3 2 3 2 3 2 2 2 2 3 1 3 2 2 2 2 3 3 2 2 2 2 2 1 1 0 0 1 2 5 3 3 6 5 3 2 5 3 4 6 7 7 7 8 9 9 10 9 11 15 12 13 16 17 18 20 21 21 22 22 23 24 25 25 25 25 25 25 26 25 25 27 28 28 26 25
5 4 3 3 2 2 3 4 3 3 3 2 2 2 2 2 2 3 3 2 3 3 2 2 2 3 1 3 2 2 2 2 1 0 1 1 0 1 2 7 4 3 4 3 4 2 6 5 6 7 6 7 7 8 9 9 14 18 15 11 10 15 16 18 18 20 21 22 23 23 23 23 23 24 25 25 24 25 26 23 26 26 25 25 25
3 3 4 3 2 3 4 4 4 4 3 3 3 3 3 3 3 3 4 2 3 4 4 3 3 3 2 2 3 3 3 1 2 2 1 1 0 1 0 1 5 7 5 5 3 3 2 4 4 5 6 8 8 9 12 14 11 16 19 11 9 10 15 18 18 18 19 21 22 23 23 23 23 24 24 25 25 26 25 25 27 27 26 25 25
3 3 4 3 3 4 4 4 4 4 3 3 3 3 3 3 3 3 4 4 3 4 4 3 4 3 4 4 4 4 3 2 3 3 2 1 1 1 1 2 1 3 5 4 5 5 3 5 5 3 6 8 9 9 10 10 12 16 11 11 11 10 13 17 18 18 19 21 22 23 23 24 24 24 24 24 24 25 26 26 25 26 27 26 25
3 3 4 4 3 4 4 4 3 3 3 3 3 3 3 3 3 4 5 3 3 3 4 5 5 4 4 4 4 4 3 4 5 4 2 2 2 1 2 2 3 2 3 6 7 2 6 5 4 6 7 11 9 9 9 11 15 18 12 12 12 11 15 17 17 18 19 21 23 23 23 24 25 24 23 23 24 26 26 26 25 25 25 26 25
3 4 4 4 4 3 3 3 3 3 3 3 3 3 2 3 3 4 4 3 4 5 5 4 4 4 5 5 5 4 4 5 4 4 2 3 3 3 3 3 3 4 5 5 8 3 1 7 7 9 10 10 10 10 10 10 12 16 13 12 12 15 20 17 20 19 20 21 22 22 21 22 23 23 24 24 25 26 25 25 25 25 25 25 24
4 4 4 4 4 4 3 3 3 3 4 4 3 3 3 3 3 4 4 4 4 5 5 5 4 5 6 6 5 5 5 5 5 4 3 3 4 4 4 5 4 5 5 5 9 10 4 7 7 10 11 11 10 11 11 9 11 17 12 13 14 18 14 12 18 20 21 22 23 23 23 23 24 24 24 24 25 24 24 24 24 25 25 24 24
4 4 4 4 4 4 4 4 4 4 4 4 4 3 3 4 4 4 4 3 4 5 5 5 4 5 6 6 6 6 6 6 5 5 4 5 4 5 5 5 5 5 5 6 8 10 6 4 6 8 10 10 11 9 12 11 11 11 12 12 13 12 12 12 12 17 20 21 22 23 24 24 24 25 26 26 25 24 24 24 24 24 24 24 24
4 5 5 4 4 4 4 4 4 4 4 4 4 3 4 4 5 3 3 3 5 6 4 5 5 5 5 6 6 6 7 6 1 2 4 5 5 5 6 5 5 6 6 5 6 7 11 6 8 6 9 8 11 10 10 13 13 10 13 13 11 11 11 11 11 12 18 20 21 22 23 24 24 25 26 26 25 24 24 24 24 23 23 23 23
5 5 5 5 5 4 4 4 4 4 4 5 5 4 4 4 3 3 4 5 5 6 5 5 5 5 4 5 6 6 1 3 2 8 6 5 6 7 7 5 6 7 6 7 6 7 9 9 7 10 8 9 9 13 12 11 11 11 12 13 12 11 10 11 11 10 15 18 20 20 22 23 24 25 25 25 25 24 24 23 23 23 22 23 23
6 5 5 6 5 4 4 4 5 5 5 5 5 4 4 4 4 6 5 5 4 4 4 5 5 4 5 5 7 4 4 6 6 7 8 7 7 7 6 5 6 7 7 6 8 8 6 10 8 9 10 10 11 11 10 11 12 11 10 12 13 12 12 11 11 11 13 18 19 20 20 22 23 24 24 24 24 24 23 22 22 22 22 22 22
6 6 5 5 5 4 6 6 5 5 6 5 5 5 4 4 5 5 5 5 4 4 5 5 5 4 5 6 7 5 5 7 8 8 8 9 3 2 6 7 7 7 6 6 7 7 8 10 11 8 9 9 10 11 10 11 12 11 10 11 12 13 13 12 10 11 15 19 19 19 20 21 22 23 24 23 23 22 21 21 21 21 21 21 21
6 5 6 5 5 6 5 6 5 5 5 5 5 5 4 5 5 5 4 4 4 5 4 5 5 5 5 6 6 6 6 8 9 8 4 3 5 9 9 8 7 7 6 6 6 7 8 10 10 11 9 11 11 10 10 10 11 12 13 12 11 11 10 11 10 9 8 8 8 10 14 17 20 22 23 23 23 23 22 21 21 21 21 21 21
7 7 6 6 5 5 6 4 5 5 6 4 4 5 5 5 5 5 4 4 5 4 4 5 6 6 6 6 6 6 7 8 8 4 6 8 8 10 9 9 7 5 6 6 7 8 8 9 9 10 11 10 9 13 11 8 11 10 12 13 13 10 9 10 12 10 8 9 12 16 14 13 14 15 19 23 24 23 22 21 21 21 20 21 20
7 7 7 7 7 5 5 4 5 6 4 4 5 5 6 6 5 5 5 5 4 4 5 5 6 6 6 6 6 6 6 7 7 8 8 8 8 8 8 6 6 5 6 6 6 7 8 8 9 11 9 11 11 10 10 9 11 10 7 9 13 14 14 11 11 12 11 10 10 9 11 13 14 16 18 20 22 23 23 22 23 22 22 21 20
7 7 6 6 5 4 4 4 4 4 5 6 5 5 6 6 5 5 5 5 4 4 4 4 5 6 6 6 5 5 7 10 13 12 11 9 6 7 8 6 5 6 6 6 7 7 8 8 10 9 10 11 11 12 11 10 11 13 12 11 12 12 12 13 13 11 10 11 10 10 10 9 10 10 10 10 12 18 20 23 19 23 23 21 21
6 6 6 5 5 6 5 5 5 4 5 4 6 10 9 6 6 5 4 4 4 4 5 6 7 6 6 5 5 9 11 12 12 13 13 13 12 10 9 5 6 5 5 7 8 7 7 9 10 11 11 12 13 12 12 12 12 12 12 12 13 12 12 13 14 11 8 9 10 11 11 9 10 10 10 12 11 13 11 12 13 15 18 21 22
7 6 6 6 6 6 6 6 6 6 5 5 10 12 12 11 5 4 4 5 4 5 5 6 7 7 6 5 5 6 7 8 8 10 11 12 12 13 14 12 9 8 7 8 8 7 8 9 10 10 11 14 14 12 12 13 12 13 12 12 12 12 12 13 16 13 6 8 9 10 12 9 9 11 10 11 12 10 10 12 17 20 20 20 22
7 5 6 6 7 6 6 6 6 7 6 9 13 13 13 11 8 6 5 5 5 4 4 5 5 5 6 6 5 4 5 6 6 5 7 10 12 12 11 11 13 15 14 10 8 7 9 9 10 11 12 14 14 12 13 13 14 14 13 13 13 13 14 14 13 14 9 5 8 9 11 8 8 10 11 11 11 10 11 15 18 18 20 20 21
6 6 7 7 7 7 7 7 7 8 7 10 13 14 12 11 11 8 5 5 5 4 3 4 5 5 5 6 6 5 5 9 7 5 5 6 8 10 11 12 12 12 12 12 12 10 8 9 11 13 13 13 14 13 13 15 15 16 16 14 13 13 13 14 15 13 14 7 10 12 12 10 7 10 11 11 10 9 11 14 18 18 19 20 20
7 7 7 8 8 7 7 8 8 8 7 10 13 13 12 11 11 8 5 5 3 3 4 4 5 5 5 6 6 6 6 5 5 5 4 5 5 5 5 5 6 8 9 10 11 13 11 8 9 12 13 12 14 15 15 15 16 17 16 17 15 15 15 15 15 15 16 9 11 10 12 12 8 9 11 11 9 9 9 12 19 19 20 20 20
9 9 9 9 8 8 7 7 7 7 8 11 10 10 10 11 11 7 4 3 3 3 4 4 5 5 5 6 5 6 7 6 6 4 4 5 5 6 5 6 6 6 5 5 6 6 7 8 9 11 13 14 14 16 16 15 16 16 16 18 19 18 16 15 15 16 15 11 11 11 15 11 5 10 11 9 8 9 9 12 17 19 20 20 20
8 7 7 7 8 8 7 6 6 7 6 7 10 12 11 12 8 4 3 2 3 3 4 4 4 4 4 5 5 5 6 6 8 7 6 5 4 5 6 6 6 4 5 6 11 11 11 10 10 12 13 16 18 19 19 18 17 17 17 17 16 15 15 14 16 12 13 10 10 12 12 12 7 9 10 8 7 8 8 8 13 19 19 19 19
8 8 8 9 6 4 3 4 6 6 5 8 11 12 11 8 5 3 1 3 3 4 5 4 4 4 4 4 4 5 6 6 7 5 3 1 2 4 5 6 5 4 7 7 10 13 13 14 17 20 22 22 23 23 25 27 22 20 17 15 16 15 14 15 15 13 14 10 9 12 12 12 9 8 9 6 7 8 8 9 8 13 18 18 19
8 9 3 1 2 4 5 6 6 6 5 4 8 7 8 9 6 3 2 2 4 5 5 4 3 3 4 8 7 4 5 5 4 4 2 1 3 4 4 4 6 7 8 7 7 8 12 15 18 20 20 21 22 22 24 24 26 22 15 18 19 14 13 12 14 12 11 10 11 11 11 13 7 8 8 2 3 4 6 7 8 9 15 16 19
5 2 3 4 3 3 4 4 5 6 4 4 7 9 9 7 4 2 2 2 3 4 4 4 3 2 4 5 6 4 3 2 2 2 2 2 3 3 3 3 6 8 8 8 9 11 11 12 13 13 14 16 15 15 18 24 26 23 17 16 15 13 11 11 13 11 11 12 11 12 12 9 9 7 8 4 6 4 3 4 7 6 7 7 9
Wind_Direction
190 209 196 212 212 199 203 222 166 253 266 242 203 214 223 213 218 241 260 274 274 253 252 261 255 250 252 273 273 270 261 250 245 247 255 260 265 266 261 230 213 213 207 203 204 208 212 206 205 204 202 202 203 202 204 205 204 202 202 203 205 207 209 210 212 213 213 213 213 213 215 219 220 221 223 226 226 228 228 229 231 233 235 238 240
188 206 197 219 220 203 231 238 221 224 219 204 242 199 195 282 244 246 244 252 260 259 251 260 261 257 252 261 269 266 264 244 239 229 232 253 257 261 264 248 225 217 215 208 208 211 215 209 207 206 205 204 205 205 206 207 208 207 205 206 206 208 211 212 213 214 216 217 216 215 214 216 220 221 224 226 228 228 230 231 231 232 235 238 239
183 193 209 220 227 230 235 221 227 217 165 169 271 66 78 106 213 239 259 257 249 251 257 264 273 270 265 269 276 285 276 268 248 228 216 222 239 249 254 254 239 225 221 217 214 217 216 212 211 207 206 205 207 208 208 209 210 210 210 209 209 209 211 213 215 216 217 218 219 217 216 216 218 221 222 225 228 231 232 233 234 236 237 238 239
178 185 200 207 220 223 237 229 236 229 191 178 299 22 238 239 351 357 338 300 272 264 258 260 275 274 272 267 274 281 281 274 269 263 245 214 218 232 242 246 247 237 230 226 222 224 221 214 215 211 207 207 208 210 212 211 211 211 212 212 213 213 212 213 215 218 218 218 219 220 218 217 217 219 221 223 226 230 232 234 233 234 238 238 239
179 184 195 202 209 221 235 243 245 245 210 187 156 262 15 53 38 42 308 299 296 287 276 262 267 273 274 271 274 273 272 277 271 270 269 261 225 217 223 233 303 276 253 248 253 240 225 218 218 215 209 209 210 211 213 214 213 213 214 214 215 216 216 215 215 217 219 219 219 220 220 219 218 219 221 222 223 226 229 231 233 234 237 240 240
174 186 186 192 205 215 228 242 240 239 204 156 122 354 43 29 346 4 291 287 287 279 277 264 254 274 284 281 281 275 268 261 258 260 266 269 266 240 223 208 188 217 234 237 231 236 237 222 218 218 212 212 212 213 214 215 216 215 215 216 216 217 218 218 217 217 218 220 220 221 221 221 220 220 221 221 221 225 229 230 231 234 236 238 240
177 174 183 185 193 208 223 229 223 201 194 165 164 202 223 226 205 254 252 256 273 285 278 262 261 267 277 283 276 276 274 258 253 257 259 261 264 265 248 208 194 212 225 224 236 237 237 231 223 219 213 213 214 214 216 217 217 217 218 218 218 218 217 219 219 220 218 219 221 222 222 222 221 222 222 222 222 223 227 230 232 234 235 237 239
174 169 170 184 191 206 222 226 196 168 179 172 161 174 194 228 229 219 258 281 276 279 277 274 273 272 266 270 271 278 277 273 268 265 260 260 259 259 256 235 207 212 220 229 232 233 233 232 230 226 217 215 215 216 218 219 219 219 218 219 220 220 218 217 218 221 221 220 220 222 223 223 222 222 222 223 223 222 225 228 231 233 235 236 238
142 112 154 180 217 216 222 213 176 165 180 200 206 203 195 216 229 220 213 260 280 280 280 270 275 275 279 273 267 267 272 269 262 258 265 259 258 260 259 250 237 220 215 227 234 239 238 233 231 230 225 219 216 217 219 221 222 221 220 220 220 221 220 219 218 219 221 223 221 221 222 223 223 222 222 222 223 223 225 226 229 231 233 234 234
143 168 186 193 202 210 226 221 207 208 228 235 246 241 222 201 226 224 221 225 249 257 271 277 277 285 282 277 278 273 263 260 258 260 255 257 257 254 253 255 251 244 229 223 228 236 241 241 236 233 236 240 239 229 221 222 224 223 222 222 222 222 222 220 219 218 219 222 223 222 222 222 223 222 222 222 222 223 224 226 227 230 232 233 234
169 166 190 194 198 216 225 229 219 236 240 247 253 249 248 238 250 268 242 229 236 248 256 271 285 286 286 280 276 271 265 258 258 255 250 254 260 260 260 256 255 250 247 240 237 234 239 253 340 287 237 232 239 242 233 224 224 225 225 224 224 224 224 223 221 220 219 219 223 224 224 223 223 223 223 222 222 222 223 224 224 226 229 231 234
177 184 188 192 200 211 218 188 200 214 222 232 243 231 243 249 251 242 260 259 229 243 247 258 274 280 284 286 274 277 275 264 262 258 257 254 257 260 258 262 257 257 254 250 242 242 236 72 212 215 231 244 253 255 247 247 230 225 227 227 227 226 227 226 224 222 221 220 220 223 225 225 224 224 224 223 223 223 223 223 224 225 225 228 231
189 188 195 202 207 209 207 207 210 215 224 232 215 260 255 244 253 243 244 262 271 222 237 213 279 302 278 274 290 272 274 278 271 281 278 265 253 252 255 260 257 257 255 249 241 236 74 321 290 244 217 225 240 249 246 244 250 239 228 230 230 229 229 228 226 224 224 222 222 223 224 226 226 226 225 225 224 223 223 223 224 225 226 228 229
188 190 189 200 213 215 207 213 211 224 237 205 103 241 258 251 248 267 239 253 265 223 224 119 338 267 323 320 294 292 275 279 291 288 282 274 271 264 265 253 259 259 264 248 253 86 123 172 201 238 262 263 267 246 235 247 245 252 253 236 230 232 231 229 227 226 225 225 224 225 226 226 226 226 226 226 226 225 225 224 225 226 228 229 230
183 183 187 202 218 218 225 216 212 204 220 187 206 232 240 244 233 233 313 276 249 254 238 170 230 235 256 309 311 350 338 344 323 312 302 298 304 308 284 270 273 275 274 268 245 220 160 162 196 228 230 213 220 224 226 244 242 244 251 259 248 233 231 234 234 231 228 225 226 226 226 226 226 226 226 227 227 227 227 226 226 227 229 229 231
182 180 186 204 213 225 234 218 223 201 204 201 206 234 242 242 228 220 213 282 291 303 209 176 172 61 347 202 292 329 325 309 321 309 307 303 324 339 339 331 319 312 308 270 253 250 251 204 207 198 205 202 187 224 202 198 246 242 245 250 264 261 246 233 231 232 234 234 231 227 228 228 226 226 227 227 228 228 228 228 227 227 228 230 231
184 186 189 202 200 211 210 218 220 214 178 188 204 222 228 227 215 204 198 211 289 294 310 121 146 183 137 321 339 21 258 292 336 292 349 348 328 346 346 337 330 327 313 290 263 245 255 259 246 232 224 226 214 212 209 212 216 230 238 241 243 255 262 252 245 237 235 233 235 232 229 229 229 228 227 227 227 228 229 229 229 228 228 229 231
169 174 177 166 174 190 189 191 241 207 195 181 182 191 206 185 200 166 178 202 201 221 282 321 54 309 189 158 180 230 273 300 47 313 331 308 301 328 331 328 337 333 323 306 296 278 250 247 241 238 230 219 229 236 237 231 222 227 236 236 233 231 245 248 238 239 237 236 235 233 233 230 229 229 229 226 225 227 228 229 229 228 228 229 230
164 170 169 146 141 145 133 110 92 91 120 97 92 187 205 190 182 158 174 180 148 282 291 310 343 331 330 131 171 205 184 135 274 276 321 324 329 330 332 346 336 326 321 320 323 310 287 263 261 259 256 236 231 233 238 241 234 225 225 232 230 223 226 233 237 237 239 240 238 233 230 237 233 230 229 229 227 226 228 229 229 229 228 228 229
159 137 120 129 127 119 113 103 84 68 81 81 95 234 201 270 220 178 159 161 179 202 265 45 33 287 331 313 305 206 194 210 192 219 245 307 320 317 303 345 331 320 311 321 323 320 314 302 284 274 259 243 229 228 231 237 234 231 231 235 237 234 237 238 236 236 238 237 242 244 235 230 234 235 230 230 228 227 227 228 229 229 229 228 228
116 126 157 130 129 128 122 119 123 128 124 115 110 100 90 95 101 129 210 203 196 198 95 212 193 258 324 312 17 49 319 212 165 173 197 270 290 327 323 325 316 292 327 321 311 315 314 306 298 290 278 261 241 233 230 237 244 237 234 229 229 229 232 236 235 236 235 232 234 239 242 239 235 233 235 231 227 226 226 226 227 228 228 228 227
102 131 154 124 144 142 135 145 154 155 133 140 119 87 112 118 155 187 192 230 236 149 147 216 223 246 234 265 10 333 3 8 29 21 301 183 250 310 316 330 333 321 324 320 323 318 312 307 307 301 292 282 261 243 235 238 241 243 241 239 236 237 238 237 234 233 229 225 228 233 237 242 243 240 237 236 232 228 225 225 224 225 226 227 227
187 271 42 146 149 149 140 147 153 138 132 137 154 174 201 172 166 144 168 199 243 148 175 212 239 261 258 218 227 194 208 266 298 306 129 288 322 300 308 310 305 308 314 322 315 310 309 308 305 303 300 297 288 269 251 241 245 247 246 246 249 248 245 242 237 231 229 225 226 228 231 232 239 242 242 237 235 235 233 227 225 224 225 226 226
326 13 132 169 156 168 159 139 149 153 187 199 203 201 190 179 171 172 182 179 215 172 169 194 213 211 216 196 203 186 185 201 240 226 227 260 240 286 302 318 305 248 289 311 306 290 309 314 306 302 305 304 297 288 278 264 251 245 246 251 252 251 246 243 239 234 229 227 225 227 226 226 230 235 238 240 239 237 238 237 230 225 226 226 226
87 143 166 179 176 157 137 166 223 222 214 202 232 229 250 284 280 219 172 145 168 163 167 208 198 193 236 208 184 179 208 215 192 212 223 226 230 284 288 287 278 305 307 309 308 320 297 289 312 309 306 302 300 300 290 278 265 254 245 252 250 250 248 244 242 238 234 231 227 225 226 227 228 230 235 235 238 238 239 238 238 233 228 227 227
171 163 197 204 214 198 178 203 215 222 223 222 228 237 236 264 268 295 295 220 187 189 199 215 205 229 213 231 235 216 227 215 209 158 222 31 318 298 312 300 276 276 289 308 308 333 315 314 305 307 311 306 304 306 304 293 284 268 256 251 253 249 248 247 245 241 237 233 230 229 229 230 230 231 232 231 231 235 233 237 238 236 234 230 227
171 202 214 222 213 198 201 201 211 219 219 219 224 227 229 217 234 242 257 234 213 207 213 207 232 248 222 198 209 205 218 224 147 181 171 152 211 244 311 328 317 268 289 281 296 241 271 302 310 310 298 307 313 314 311 308 301 290 272 264 261 255 249 250 248 245 242 238 234 230 228 228 228 228 230 230 230 232 234 232 238 240 236 233 230
212 198 226 208 194 202 218 214 206 214 217 219 233 237 235 220 249 251 259 234 211 217 230 200 221 217 215 192 157 215 228 184 170 166 153 148 181 189 190 279 318 313 310 296 320 281 238 299 302 264 307 316 312 309 304 304 301 298 295 284 271 258 251 250 248 244 243 241 238 233 229 227 225 224 224 226 228 230 230 228 231 236 238 236 232
213 220 231 228 206 203 216 229 224 224 229 236 234 242 246 251 257 258 253 247 211 219 220 212 226 201 181 181 186 206 229 190 168 170 158 146 200 205 194 218 225 289 314 302 314 315 303 332 327 300 317 309 308 306 302 296 296 298 292 287 278 265 255 248 246 243 241 242 241 238 232 229 227 226 223 223 225 229 230 229 229 230 232 234 233
206 213 220 234 222 223 216 231 239 236 229 247 246 254 251 256 256 258 255 246 226 223 217 209 220 197 194 192 191 206 207 178 184 185 153 181 190 193 212 209 172 213 248 291 296 267 286 313 301 297 314 311 308 303 304 300 299 301 292 287 280 271 262 258 251 246 242 241 240 239 236 233 230 227 225 222 223 226 229 230 230 230 232 233 232
220 234 228 227 228 231 208 231 242 243 245 246 245 251 231 242 253 248 258 241 224 225 229 215 220 194 198 204 202 206 195 191 192 184 163 179 195 195 196 193 216 210 234 248 290 241 259 305 301 297 302 303 304 303 300 298 298 301 297 288 283 275 269 264 258 250 245 243 241 238 235 233 233 231 228 226 225 226 227 228 229 230 231 232 233
225 224 222 223 219 217 218 217 235 254 265 265 253 246 223 222 236 242 253 230 227 231 243 230 215 201 203 209 209 210 202 195 192 183 188 208 192 189 196 199 224 229 225 243 259 275 256 278 285 294 299 302 303 300 299 299 297 301 298 294 288 285 275 269 261 252 245 244 243 242 240 237 234 234 231 229 228 228 228 228 228 229 229 230 231
213 212 212 218 217 213 220 227 228 247 251 259 253 244 248 260 258 247 258 242 235 247 243 246 233 213 210 212 216 216 202 202 204 194 193 212 208 206 202 199 227 236 224 237 260 279 278 245 280 289 296 303 299 294 299 299 299 298 294 289 288 282 276 268 264 255 247 244 243 241 241 240 236 234 235 234 231 229 228 228 227 227 228 229 230
200 202 213 226 229 227 225 235 239 244 247 248 259 248 252 255 262 262 271 260 248 251 241 242 239 228 218 215 224 223 212 213 251 239 213 217 211 214 216 201 212 237 226 228 250 272 288 291 288 279 290 293 293 295 297 303 301 300 298 296 289 282 275 270 264 260 251 246 243 242 241 240 238 234 234 235 234 232 231 230 229 227 227 228 228
215 209 219 227 236 236 233 240 243 249 247 250 256 253 249 249 266 268 238 233 231 238 237 240 240 234 227 226 230 227 80 58 242 238 232 229 223 217 225 210 213 226 233 224 244 266 277 287 290 298 297 298 291 299 299 294 293 294 293 294 296 291 280 272 266 260 254 249 245 241 240 240 238 236 234 234 234 235 234 232 231 229 227 226 226
219 228 221 228 234 233 234 243 239 240 255 259 264 264 260 249 235 238 237 236 243 250 251 253 247 230 229 236 242 206 171 208 226 229 229 229 225 225 232 237 223 231 233 231 228 247 270 287 291 293 297 300 295 290 292 290 294 295 291 291 291 288 284 275 267 262 256 250 245 242 239 238 237 236 236 235 235 234 234 233 232 231 228 226 225
223 223 233 228 232 229 227 230 236 243 249 257 264 267 254 226 225 233 239 237 242 247 246 250 253 239 236 234 244 212 204 222 239 237 233 235 261 310 256 241 234 238 240 237 243 242 265 278 287 285 290 287 282 288 290 296 298 295 291 288 291 292 286 275 268 260 256 252 247 243 241 239 237 236 236 236 235 235 234 233 233 232 230 228 227
227 220 223 228 216 219 220 230 234 240 245 244 243 245 231 227 230 235 244 248 243 240 241 241 242 243 237 238 238 227 220 224 234 240 247 244 227 235 241 241 236 236 242 252 255 260 260 271 283 293 287 291 293 284 291 293 297 302 302 294 288 282 284 287 275 266 258 252 250 244 243 243 241 236 236 237 237 235 233 232 232 231 230 228 227
214 218 220 220 225 212 227 224 230 231 238 237 221 214 219 224 229 233 238 237 242 240 242 243 250 246 239 235 235 229 228 233 243 232 212 226 234 241 241 243 244 242 245 251 256 264 267 279 283 279 287 282 277 292 293 290 288 286 293 300 298 293 291 295 296 289 273 262 251 245 243 239 235 235 234 234 234 234 233 232 232 230 228 227 225
207 212 215 213 220 197 213 218 230 225 217 205 209 214 216 221 226 235 232 237 240 244 249 255 251 249 246 244 241 238 233 235 229 234 230 236 238 251 251 242 245 248 252 257 264 267 275 279 279 288 284 290 292 277 286 298 297 290 270 285 295 301 300 291 278 284 281 270 266 260 246 244 244 240 238 237 234 233 232 232 230 228 227 225 223
199 205 208 205 207 220 228 224 229 216 196 208 202 204 214 229 226 235 241 243 252 259 266 262 254 251 256 254 253 246 232 230 225 227 230 231 233 246 253 233 239 239 254 264 264 267 272 279 286 284 290 291 288 295 300 299 294 292 299 293 284 283 286 288 285 268 263 265 262 256 251 235 236 234 230 231 231 227 231 228 230 228 226 223 221
202 204 207 211 207 216 222 225 229 226 220 216 220 216 214 216 220 228 235 242 243 250 262 275 280 272 263 258 254 242 231 232 232 234 241 244 240 236 251 245 242 252 260 267 269 274 283 287 287 291 294 289 291 293 293 289 287 288 288 287 284 288 287 282 279 268 254 247 254 255 250 234 229 237 228 231 232 219 223 219 222 222 222 220 220
214 216 213 215 218 221 218 221 229 230 220 217 220 221 224 224 215 214 220 235 231 235 241 248 257 268 277 271 257 259 260 260 255 245 243 248 251 245 246 250 246 241 259 261 266 276 287 287 288 288 285 288 288 291 291 292 289 286 285 284 280 281 281 288 290 294 250 237 246 251 256 234 218 231 229 227 228 219 214 220 215 216 219 214 215
224 218 223 225 223 221 221 220 223 225 223 223 221 224 225 220 216 217 219 225 233 231 238 244 252 257 260 266 264 255 262 261 262 263 257 252 251 252 246 239 240 239 232 231 258 284 281 286 287 286 288 287 293 297 295 294 293 291 286 280 276 275 274 273 271 270 276 260 264 254 256 245 212 226 233 228 224 218 215 215 213 211 213 214 210
216 217 228 230 232 225 221 221 227 229 227 227 223 225 223 215 215 215 222 224 224 240 250 254 257 259 263 265 272 271 263 269 270 259 254 263 259 252 248 250 252 247 242 237 234 240 258 268 277 282 282 289 293 291 290 291 292 289 289 282 274 267 261 262 263 269 270 257 268 264 266 257 215 223 231 230 219 213 214 209 205 204 207 209 208
213 222 227 229 230 224 221 221 230 233 229 233 224 220 219 219 222 214 221 218 227 241 251 262 266 267 263 261 267 278 279 276 266 259 259 253 260 262 258 251 252 262 260 254 261 264 258 257 267 276 281 285 286 288 286 286 289 288 287 283 280 272 265 258 262 261 264 262 266 279 272 260 224 223 229 231 213 213 211 202 201 203 202 204 205
209 214 220 223 227 223 221 220 226 235 235 234 227 216 212 216 226 220 229 226 235 248 258 257 257 258 262 256 250 256 270 274 267 250 249 259 261 259 259 258 254 258 260 270 270 271 282 283 278 278 283 285 283 284 286 284 281 281 278 278 278 274 270 267 261 254 263 251 254 257 260 262 218 227 233 228 212 218 214 211 198 199 200 201 202
216 216 226 222 226 221 217 212 220 238 247 224 209 206 204 214 211 209 212 250 279 282 275 265 262 262 260 259 260 267 268 269 271 261 247 251 249 251 257 261 272 274 267 258 265 270 270 275 281 284 287 285 283 285 285 285 284 282 279 274 271 268 262 255 252 252 253 246 221 240 256 262 236 224 237 229 214 222 216 216 202 197 198 200 201
215 218 223 226 223 206 192 201 212 225 224 218 206 204 204 193 184 200 249 275 278 276 272 273 276 275 273 269 269 273 272 271 270 273 286 185 227 255 265 281 285 287 282 285 273 268 274 284 287 285 282 283 284 284 285 284 284 284 282 277 269 265 252 245 246 243 247 241 227 222 238 253 234 223 233 225 208 213 213 214 207 200 198 200 201
218 224 222 100 150 170 185 203 200 193 213 212 193 194 182 188 184 195 230 248 272 272 276 278 272 275 283 298 301 283 271 263 252 255 215 241 254 273 296 291 299 299 295 295 298 297 298 294 290 290 292 293 293 292 290 290 291 289 283 279 278 266 246 229 240 235 247 238 232 212 225 234 231 218 230 221 229 235 213 212 203 197 200 202 203
214 109 131 161 135 168 165 146 147 162 187 218 194 186 189 184 177 180 189 215 265 272 278 285 278 290 305 310 302 299 292 261 240 285 325 324 286 284 276 293 295 294 291 306 308 310 310 309 304 306 306 304 304 306 304 299 296 292 282 276 277 268 239 222 224 228 239 241 224 193 214 227 220 218 201 194 215 244 221 205 201 185 178 187 198